{"data":{"norad_id":54004,"intl_designator":"2022-125AS","name":"STARLINK-5129","alt_names":[],"object_type":"PAYLOAD","status":"ACTIVE","operator":null,"country":"US","launch_date":"2022-10-05","launch_site_code":"AFWTR","launch_vehicle":null,"mission":null,"orbit_class":"UNKNOWN","rcs_meters":null,"size_class":null,"mass_kg":null,"dimensions":null,"purposes":["comms"],"wikipedia_slug":null,"has_3d_model":false,"image_url":null,"decayed_at":null,"tle_current":{"epoch":"2026-09-20T22:00:03.000096Z","epoch_age_seconds":50537,"freshness":"FRESH","line1":"1 54004U 22125AS  26263.91670139  .00075278  00000+0  29094-2 0  9994","line2":"2 54004  53.1586  56.0732 0002159  86.1786 110.3813 15.25584354  5755","mean_motion":15.25584354,"eccentricity":0.0002159,"inclination_deg":53.1586,"raan_deg":56.0732,"arg_perigee_deg":86.1786,"mean_anomaly_deg":110.3813,"bstar":0.0029094,"rev_number":575,"period_min":94.390060846154,"perigee_km":487.5486695995,"apogee_km":490.51391286765,"semimajor_km":6867.1682912336,"source":"CELESTRAK","updated_at":"2026-09-21T09:00:33.073122Z"}}}